This is the latest recevied weather packets stored in our database for station/object N3FWE. If no packets are shown the sender has not sent any weather packets the latest 10 day(s).
| Time | Temp. | Humidity | Pressure | Rain* | Wind** | Luminosity | Snow |
|---|---|---|---|---|---|---|---|
| 1777761614 | 12.22° C | 48% | 1013.4 hPa | 0 mm | - | - | - |
| 1777761014 | 12.22° C | 47% | 1013.2 hPa | 0 mm | - | - | - |
| 1777760414 | 12.78° C | 47% | 1013.3 hPa | 0 mm | - | - | - |
| 1777759814 | 12.78° C | 47% | 1013.2 hPa | 0 mm | - | - | - |
| 1777759215 | 12.78° C | 46% | 1013.1 hPa | 0 mm | - | - | - |
| 1777758615 | 12.78° C | 43% | 1013.2 hPa | 0 mm | - | - | - |
| 1777758013 | 12.78° C | 44% | 1013 hPa | 0 mm | - | - | - |
| 1777757413 | 12.78° C | 44% | 1012.8 hPa | 0 mm | - | - | - |
| 1777756813 | 12.78° C | 44% | 1012.7 hPa | 0 mm | - | - | - |
| 1777756213 | 13.33° C | 46% | 1012.7 hPa | 0 mm | - | - | - |
| 1777755613 | 13.33° C | 43% | 1012.7 hPa | 0 mm | - | - | - |
| 1777755013 | 13.33° C | 45% | 1012.6 hPa | 0 mm | - | - | - |
| 1777754414 | 13.33° C | 44% | 1012.7 hPa | 0 mm | - | - | - |
| 1777753814 | 13.33° C | 45% | 1012.6 hPa | 0 mm | - | - | - |
| 1777753214 | 12.78° C | 46% | 1012.7 hPa | 0 mm | - | - | - |
| 1777752614 | 12.78° C | 44% | 1012.9 hPa | 0 mm | - | - | - |
| 1777752014 | 13.33° C | 44% | 1013 hPa | 0 mm | - | - | - |
| 1777751414 | 13.33° C | 47% | 1013.1 hPa | 0 mm | - | - | - |
| 1777750814 | 13.33° C | 45% | 1013.3 hPa | 0 mm | - | - | - |
| 1777750213 | 13.33° C | 47% | 1013.4 hPa | 0 mm | - | - | - |
| 1777749612 | 12.78° C | 46% | 1013.7 hPa | 0 mm | - | - | - |
| 1777749013 | 12.78° C | 45% | 1013.8 hPa | 0 mm | - | - | - |
| 1777748413 | 13.33° C | 45% | 1013.8 hPa | 0 mm | - | - | - |
| 1777747812 | 13.33° C | 44% | 1014 hPa | 0 mm | - | - | - |
| 1777747213 | 13.33° C | 42% | 1014.1 hPa | 0 mm | - | - | - |
* Rain latest hour (hover to see other rain measurements)
** Current wind speed in m/s (hover to see current wind gust speed)